• In Hungary
  • List of Countries
  • For 7 days
  • Water Temperature
  • Satellite Maps
  • Weather Map
  • News
  • Weather Widgets
  • user-avatar
    Login

    Hourly Weather Djaipur

    Today, 19 August, Saturday

    Time Temperature Precipitation Wind Pressure Humidity
    00:00 +32°C° 0 mm 2 mps 718 mmHg 45%
    01:00 +32°C° 0 mm 2 mps 718 mmHg 47%
    02:00 +31°C° 0 mm 3 mps 718 mmHg 49%
    03:00 +31°C° 0 mm 3 mps 718 mmHg 50%
    04:00 +31°C° 0 mm 2 mps 718 mmHg 51%
    05:00 +30°C° 0 mm 1 mps 718 mmHg 58%
    06:00 +31°C° 0 mm 2 mps 718 mmHg 56%
    07:00 +32°C° 0 mm 2 mps 718 mmHg 53%
    08:00 +34°C° 0 mm 2 mps 719 mmHg 50%
    09:00 +35°C° 0 mm 3 mps 719 mmHg 46%
    10:00 +37°C° 0 mm 3 mps 719 mmHg 41%
    11:00 +38°C° 0 mm 3 mps 719 mmHg 36%
    12:00 +38°C° 0 mm 4 mps 718 mmHg 36%
    13:00 +38°C° 0 mm 4 mps 718 mmHg 36%
    14:00 +40°C° 0 mm 4 mps 718 mmHg 36%
    15:00 +38°C° 0 mm 4 mps 717 mmHg 40%
    16:00 +37°C° 0 mm 5 mps 717 mmHg 43%
    17:00 +37°C° 0 mm 5 mps 717 mmHg 47%
    18:00 +36°C° 0 mm 5 mps 717 mmHg 52%
    19:00 +35°C° 0 mm 5 mps 717 mmHg 56%
    20:00 +34°C° 0 mm 5 mps 718 mmHg 61%
    21:00 +33°C° 0 mm 5 mps 718 mmHg 64%
    22:00 +33°C° 0 mm 4 mps 718 mmHg 67%
    23:00 +32°C° 0 mm 4 mps 718 mmHg 71%

    Tomorrow, 20 August, Sunday

    Time Temperature Precipitation Wind Pressure Humidity
    00:00 +32°C° 0 mm 4 mps 718 mmHg 72%
    01:00 +31°C° 0 mm 3 mps 718 mmHg 73%
    02:00 +30°C° 0 mm 3 mps 718 mmHg 74%
    03:00 +30°C° 0.2 mm 3 mps 718 mmHg 75%
    04:00 +30°C° 0.2 mm 3 mps 717 mmHg 76%
    05:00 +30°C° 0.2 mm 2 mps 717 mmHg 77%
    06:00 +31°C° 0.5 mm 3 mps 718 mmHg 73%
    07:00 +31°C° 0.5 mm 3 mps 718 mmHg 70%
    08:00 +33°C° 0.5 mm 4 mps 718 mmHg 66%
    09:00 +34°C° 1.9 mm 3 mps 718 mmHg 61%
    10:00 +35°C° 1.9 mm 3 mps 718 mmHg 57%
    11:00 +36°C° 1.9 mm 3 mps 718 mmHg 53%
    12:00 +37°C° 0.8 mm 3 mps 718 mmHg 52%
    13:00 +37°C° 0.8 mm 3 mps 717 mmHg 50%
    14:00 +37°C° 0.8 mm 3 mps 717 mmHg 49%
    15:00 +37°C° 0 mm 3 mps 716 mmHg 49%
    16:00 +37°C° 0 mm 3 mps 716 mmHg 49%
    17:00 +37°C° 0 mm 3 mps 716 mmHg 49%
    18:00 +36°C° 0 mm 3 mps 716 mmHg 52%
    19:00 +36°C° 0 mm 3 mps 716 mmHg 55%
    20:00 +35°C° 0 mm 2 mps 717 mmHg 57%
    21:00 +34°C° 0 mm 3 mps 717 mmHg 59%
    22:00 +34°C° 0 mm 3 mps 717 mmHg 61%
    23:00 +34°C° 0 mm 3 mps 717 mmHg 63%

    Day after tomorrow, 21 August, Monday

    Time Temperature Precipitation Wind Pressure Humidity
    00:00 +33°C° 0 mm 3 mps 717 mmHg 65%
    01:00 +33°C° 0 mm 3 mps 716 mmHg 67%
    02:00 +31°C° 0 mm 3 mps 716 mmHg 69%
    03:00 +31°C° 0.9 mm 3 mps 716 mmHg 71%
    04:00 +31°C° 0.9 mm 3 mps 716 mmHg 72%
    05:00 +30°C° 0.9 mm 3 mps 716 mmHg 74%
    06:00 +32°C° 0 mm 4 mps 717 mmHg 70%
    07:00 +33°C° 0 mm 4 mps 717 mmHg 67%
    08:00 +34°C° 0 mm 4 mps 717 mmHg 63%
    09:00 +35°C° 0 mm 4 mps 717 mmHg 58%
    10:00 +36°C° 0 mm 4 mps 717 mmHg 54%
    11:00 +37°C° 0 mm 4 mps 717 mmHg 49%
    12:00 +37°C° 0 mm 3 mps 717 mmHg 48%
    13:00 +38°C° 0 mm 3 mps 716 mmHg 46%
    14:00 +38°C° 0 mm 3 mps 716 mmHg 45%
    15:00 +38°C° 0 mm 3 mps 715 mmHg 45%
    16:00 +38°C° 0 mm 3 mps 715 mmHg 46%
    17:00 +38°C° 0 mm 4 mps 715 mmHg 46%
    18:00 +37°C° 0 mm 3 mps 715 mmHg 49%
    19:00 +36°C° 0 mm 3 mps 715 mmHg 52%
    20:00 +35°C° 0 mm 2 mps 716 mmHg 55%
    21:00 +35°C° 0 mm 2 mps 716 mmHg 57%
    22:00 +34°C° 0 mm 2 mps 716 mmHg 59%
    23:00 +34°C° 0 mm 2 mps 716 mmHg 62%

    22 August, Tuesday

    Time Temperature Precipitation Wind Pressure Humidity
    00:00 +32°C° 1.1 mm 2 mps 716 mmHg 64%
    01:00 +32°C° 1.1 mm 2 mps 716 mmHg 67%
    02:00 +31°C° 1.1 mm 2 mps 715 mmHg 70%
    03:00 +31°C° 0.7 mm 2 mps 715 mmHg 71%
    04:00 +31°C° 0.7 mm 1 mps 715 mmHg 73%
    05:00 +31°C° 0.7 mm 1 mps 715 mmHg 74%
    06:00 +31°C° 0.7 mm 1 mps 716 mmHg 70%
    07:00 +32°C° 0.7 mm 1 mps 717 mmHg 66%
    08:00 +33°C° 0.7 mm 1 mps 717 mmHg 62%
    09:00 +34°C° 2.3 mm 1 mps 717 mmHg 58%
    10:00 +36°C° 2.3 mm 2 mps 717 mmHg 55%
    11:00 +36°C° 2.3 mm 2 mps 717 mmHg 51%
    12:00 +37°C° 0.4 mm 2 mps 717 mmHg 50%
    13:00 +37°C° 0.4 mm 2 mps 716 mmHg 49%
    14:00 +37°C° 0.4 mm 2 mps 716 mmHg 48%
    15:00 +37°C° 0 mm 2 mps 716 mmHg 48%
    16:00 +37°C° 0 mm 2 mps 716 mmHg 48%
    17:00 +37°C° 0 mm 2 mps 715 mmHg 48%
    18:00 +37°C° 0 mm 2 mps 716 mmHg 51%
    19:00 +36°C° 0 mm 2 mps 716 mmHg 53%
    20:00 +35°C° 0 mm 2 mps 717 mmHg 56%
    21:00 +35°C° 0 mm 2 mps 717 mmHg 57%
    22:00 +34°C° 0 mm 2 mps 717 mmHg 59%
    23:00 +34°C° 0 mm 2 mps 717 mmHg 60%

    23 August, Wednesday

    Time Temperature Precipitation Wind Pressure Humidity
    00:00 +32°C° 0.2 mm 2 mps 717 mmHg 62%
    01:00 +32°C° 0.2 mm 2 mps 717 mmHg 64%
    02:00 +32°C° 0.2 mm 2 mps 716 mmHg 66%
    03:00 +31°C° 0.6 mm 1 mps 717 mmHg 68%
    04:00 +31°C° 0.6 mm 1 mps 717 mmHg 70%
    05:00 +31°C° 0.6 mm 1 mps 717 mmHg 72%
    06:00 +32°C° 0.4 mm 1 mps 718 mmHg 69%
    07:00 +32°C° 0.4 mm 1 mps 718 mmHg 65%
    08:00 +33°C° 0.4 mm 1 mps 719 mmHg 62%
    09:00 +34°C° 1 mm 1 mps 719 mmHg 59%
    10:00 +34°C° 1 mm 1 mps 719 mmHg 56%
    11:00 +35°C° 1 mm 1 mps 719 mmHg 53%
    12:00 +35°C° 0.8 mm 2 mps 719 mmHg 55%
    13:00 +35°C° 0.8 mm 3 mps 719 mmHg 57%
    14:00 +35°C° 0.8 mm 4 mps 718 mmHg 58%
    15:00 +35°C° 0 mm 4 mps 718 mmHg 59%
    16:00 +34°C° 0 mm 4 mps 718 mmHg 60%
    17:00 +34°C° 0 mm 3 mps 718 mmHg 62%
    18:00 +33°C° 0 mm 3 mps 718 mmHg 64%
    19:00 +32°C° 0 mm 2 mps 718 mmHg 66%
    20:00 +31°C° 0 mm 2 mps 719 mmHg 69%
    21:00 +31°C° 0.2 mm 2 mps 719 mmHg 70%
    22:00 +30°C° 0.2 mm 2 mps 719 mmHg 72%
    23:00 +30°C° 0.2 mm 2 mps 719 mmHg 73%

    24 August, Thursday

    Time Temperature Precipitation Wind Pressure Humidity
    00:00 +30°C° 0 mm 2 mps 719 mmHg 74%
    01:00 +29°C° 0 mm 2 mps 718 mmHg 76%
    02:00 +29°C° 0 mm 2 mps 718 mmHg 77%
    03:00 +29°C° 0.2 mm 1 mps 718 mmHg 78%
    04:00 +29°C° 0.2 mm 1 mps 718 mmHg 79%
    05:00 +29°C° 0.2 mm 1 mps 718 mmHg 79%
    06:00 +30°C° 1.1 mm 1 mps 719 mmHg 75%
    07:00 +31°C° 1.1 mm 1 mps 719 mmHg 71%
    08:00 +32°C° 1.1 mm 1 mps 720 mmHg 67%
    09:00 +33°C° 1.1 mm 1 mps 720 mmHg 62%
    10:00 +34°C° 1.1 mm 1 mps 720 mmHg 57%
    11:00 +33°C° 1.1 mm 0 mps 720 mmHg 51%
    12:00 +35°C° 0.2 mm 1 mps 719 mmHg 49%
    13:00 +36°C° 0.2 mm 1 mps 719 mmHg 47%
    14:00 +36°C° 0.2 mm 1 mps 718 mmHg 45%
    15:00 +36°C° 0 mm 1 mps 718 mmHg 45%
    16:00 +36°C° 0 mm 1 mps 717 mmHg 45%
    17:00 +37°C° 0 mm 2 mps 717 mmHg 45%
    18:00 +35°C° 0.1 mm 1 mps 717 mmHg 48%
    19:00 +34°C° 0.1 mm 1 mps 717 mmHg 52%
    20:00 +33°C° 0.1 mm 1 mps 718 mmHg 55%
    21:00 +33°C° 0.5 mm 1 mps 717 mmHg 58%
    22:00 +32°C° 0.5 mm 1 mps 717 mmHg 61%
    23:00 +32°C° 0.5 mm 1 mps 717 mmHg 63%
    Show more